Monticello, KY

1:33 AM EST on December 07, 2019 (GMT -0500)
Wayne County

Weather History for KEKQ - September, 2019

Change the Weather History Date:

Sunday, September 29, 2019

  Actual Average Record
Temperature  
Mean Temperature 78 °F -  
Max Temperature 93 °F 76 °F 93 °F (2019)
Min Temperature 64 °F 50 °F 37 °F (1962)
Cooling Degree Days 14    
Growing Degree Days 28 (Base 50)    
Moisture  
Dew Point 68 °F    
Average Humidity 76    
Maximum Humidity 100    
Minimum Humidity 42    
Precipitation  
Precipitation 0.00 in - - ()
Sea Level Pressure  
Sea Level Pressure 30.18 in    
Wind  
Wind Speed 7 mph (WNW)    
Max Wind Speed 15 mph    
Max Gust Speed 17 mph    
Visibility 10 miles    
Events      
Averages and records for this station are not official NWS values.
T = Trace of Precipitation, MM = Missing Value Source: NWS Daily Summary

Daily Weather History Graph

Daily Weather History Graph

Search for Another Location

Airport or City:

Astronomy

Sep. 29, 2019 Rise Set
Actual Time 6:32 AM CDT 6:26 PM CDT
Civil Twilight 6:07 AM CDT 6:51 PM CDT
Nautical Twilight 5:36 AM CDT 7:21 PM CDT
Astronomical Twilight 5:06 AM CDT 7:52 PM CDT
Moon 7:22 AM CDT (9/29) 7:27 PM CDT (9/29)
Length of Visible Light 12h 44m
Length of Day
11h 53m
New Moon, 1% of the Moon is Illuminated
Sep 29
New Moon
Oct 5
First Quarter
Oct 13
Full
Oct 21
Last Quarter
Oct 27
New

Hourly Weather History & Observations

Time (CDT) Temp. Heat Index Dew Point Humidity Pressure Visibility Wind Dir Wind Speed Gust Speed Precip Events Conditions
12:56 AM 68.0 °F - 66.0 °F 93% 30.16 in 10.0 mi West 4.6 mph - N/A   Mostly Cloudy
1:56 AM 66.0 °F - 64.9 °F 96% 30.17 in 10.0 mi West 9.2 mph - N/A   Clear
2:56 AM 64.0 °F - 64.0 °F 100% 30.16 in 10.0 mi Calm Calm - N/A   Clear
3:56 AM 64.0 °F - 64.0 °F 100% 30.17 in 10.0 mi Variable 5.8 mph - N/A   Clear
4:56 AM 64.0 °F - 64.0 °F 100% 30.18 in 10.0 mi West 4.6 mph - N/A   Clear
5:56 AM 64.0 °F - 63.0 °F 96% 30.19 in 10.0 mi NE 9.2 mph - N/A   Clear
6:56 AM 64.9 °F - 64.9 °F 100% 30.22 in 10.0 mi West 10.4 mph - N/A   Clear
7:56 AM 73.0 °F - 69.1 °F 87% 30.22 in 10.0 mi West 10.4 mph - N/A   Clear
8:56 AM 80.1 °F 83.6 °F 71.1 °F 74% 30.23 in 10.0 mi NE 9.2 mph - N/A   Clear
9:56 AM 84.9 °F 90.1 °F 71.1 °F 63% 30.23 in 10.0 mi NE 8.1 mph - N/A   Clear
10:56 AM 89.1 °F 95.0 °F 71.1 °F 55% 30.21 in 10.0 mi West 11.5 mph 17.3 mph N/A   Clear
11:56 AM 91.9 °F 97.4 °F 70.0 °F 48% 30.19 in 10.0 mi Variable 6.9 mph - N/A   Partly Cloudy
12:56 PM 93.0 °F 96.4 °F 66.9 °F 42% 30.18 in 10.0 mi West 15.0 mph - N/A   Partly Cloudy
1:56 PM 91.9 °F 95.9 °F 68.0 °F 45% - 10.0 mi West 12.7 mph 17.3 mph N/A   Mostly Cloudy
2:56 PM 90.0 °F 94.5 °F 69.1 °F 50% 30.14 in 10.0 mi ESE 9.2 mph - N/A   Mostly Cloudy
3:56 PM 90.0 °F 94.5 °F 69.1 °F 50% 30.14 in 10.0 mi North - - N/A   Clear
4:56 PM 89.1 °F 94.1 °F 70.0 °F 53% 30.13 in 10.0 mi Variable 6.9 mph - N/A   Partly Cloudy
5:56 PM 86.0 °F 92.2 °F 72.0 °F 63% 30.14 in 10.0 mi ENE 8.1 mph - N/A   Clear
6:56 PM 82.0 °F 85.9 °F 70.0 °F 67% 30.15 in 10.0 mi NE 9.2 mph - N/A   Clear
7:56 PM 75.0 °F - 68.0 °F 79% 30.17 in 10.0 mi Variable 4.6 mph - N/A   Clear
8:56 PM 71.1 °F - 66.9 °F 87% 30.17 in 10.0 mi Calm Calm - N/A   Clear
9:56 PM 71.1 °F - 68.0 °F 90% 30.17 in 10.0 mi West 10.4 mph - N/A   Clear
10:56 PM 69.1 °F - 66.9 °F 93% 30.16 in 10.0 mi Variable 5.8 mph - N/A   Clear
11:56 PM 69.1 °F - 68.0 °F 96% 30.17 in 10.0 mi West 10.4 mph - N/A   Clear